Location: Forst
(46.9333°N, 15.4333°E)
Time: 16:32:33
(UTC+00:00)

CZ-2C R/B - Pass Details

Date: 01 December 2020
Orbit: 705 x 907 km, 98.1° (Epoch: 28 January)

Event Time Altitude Azimuth Distance (km) Brightness Sun altitude
Rises 17:13:34 0° 158° (SSE) 3,223 6.1 -20.2°
Reaches altitude 10° 17:15:55 10° 156° (SSE) 2,273 5.3 -20.6°
Maximum altitude 17:20:51 70° 73° (ENE) 780 2.7 -21.4°
Drops below altitude 10° 17:25:38 10° 351° (N) 2,205 5.4 -22.2°
Sets 17:27:53 0° 349° (N) 3,118 6.2 -22.6°
